Flag for U.S.A. Weather past 2 weeks in Oxnard, California, U.S.A.

Now
63 °F

Sunny.


Feels Like: 63 °F
Forecast: 53 / 66 °F
Wind: 13 mph from West

Location: Oxnard Airport

Current Time: Jan 30, 2015 at 4:53:33 PM

Latest Report: Jan 30, 2015 at 3:51 PM


Visibility: 9 mi

Pressure: 29.84 "Hg

Humidity: 78%

Dew point: 56 °F

Location of OxnardLocation

Historic Weather in Oxnard — Graph

°F

Oxnard temperature yesterday

Maximum temperature yesterday: 72 °F (at 1:51 PM)
Minimum temperature yesterday: 59 °F (at 5:51 AM)
Average temperature yesterday: 64 °F

Past Weeks' High & Low Weather Summary

 TemperatureHumidityPressure
High84 °F (Jan 25, 12:51 PM)93% (Jan 20, 1:51 AM)30.26 "Hg (Jan 20, 1:51 AM)
Low50 °F (Jan 19, 7:51 AM)13% (Jan 22, 11:51 AM)29.84 "Hg (Jan 30, 2:51 PM)
Average62 °F57%30.09 "Hg
* Reported Jan 15 2:51 PM — Jan 30 2:51 PM, Oxnard, Weather by CustomWeather, © 2014

Note: Actual official high and low records may vary slightly from our data, if they occured in-between our weather recording intervals... More about our weather records

Advertising

Oxnard weather history for previous 24 hours

 ConditionsComfort  
Time TempWeatherWind HumidityBarometerVisibility
2:51 PM
Jan 30
66 °FSunny.9 mph63%29.84 "Hg10 mi
1:51 PM64 °FSunny.8 mph73%29.85 "Hg10 mi
12:51 PM64 °FPartly sunny.9 mph73%29.87 "Hg10 mi
11:51 AM65 °FSunny.8 mph68%29.90 "Hg10 mi
10:51 AM66 °FSunny.10 mph65%29.92 "Hg10 mi
9:51 AM64 °FOvercast.6 mph63%29.93 "Hg10 mi
8:51 AM62 °FScattered clouds.No wind65%29.94 "Hg9 mi
7:51 AM60 °FOvercast.3 mph69%29.94 "Hg10 mi
6:51 AM60 °FOvercast.No wind72%29.94 "Hg10 mi
5:51 AM59 °FOvercast.No wind78%29.94 "Hg10 mi
4:51 AM60 °FPassing clouds.3 mph65%29.93 "Hg10 mi
3:51 AM62 °FMostly cloudy.3 mph58%29.94 "Hg10 mi
2:51 AM62 °FPassing clouds.3 mph60%29.96 "Hg10 mi
1:51 AM62 °FOvercast.7 mph62%29.98 "Hg10 mi
12:51 AM61 °FPartly cloudy.5 mph70%29.99 "Hg10 mi
11:51 PM
Jan 29
61 °FClear.5 mph81%30.01 "Hg10 mi
10:51 PM61 °FClear.5 mph87%30.01 "Hg8 mi
9:51 PM62 °FPassing clouds.No wind83%30.01 "Hg8 mi
8:51 PM63 °FPassing clouds.3 mph84%30.01 "Hg9 mi
7:51 PM62 °FOvercast.No wind86%30.01 "Hg9 mi
6:51 PM63 °FOvercast.No wind84%30.00 "Hg10 mi
5:51 PM63 °FPassing clouds.9 mph81%29.99 "Hg10 mi
4:51 PM67 °FSunny.9 mph59%29.98 "Hg10 mi
Weather by CustomWeather, © 2014

See weather overviewHow to use our weather pages